Regional Weather Roundup
Issued by NWS

Home | Current Version | Previous Version | Graphics & Text | Print | Product List | Glossary On
Versions: 1 2 3 4 5 6 7 8 9 10 11 12 13 14 15 16 17 18 19 20 21 22 23 24 25 26 27
000
ASUS45 KBOI 240510
RWRID

IDAHO REGIONAL WEATHER ROUNDUP
NATIONAL WEATHER SERVICE BOISE ID
1100 PM MDT THU MAR 23 2017

NOTE: "FAIR" INDICATES FEW OR NO CLOUDS BELOW 12000 FEET
WITH NO SIGNIFICANT WEATHER AND/OR OBSTRUCTIONS TO VISIBILITY

IDZ012-014-240600-
SOUTHWEST IDAHO


CITY           SKY/WX    TMP DP  RH WIND       PRES   REMARKS
BOISE          CLEAR     45  25  45 SE8       30.04S
CALDWELL       CLEAR     43  29  57 CALM      30.05R
MOUNTAIN HOME  CLEAR     38  31  76 S6        30.06R WCI  34
$$

IDZ016-017-240600-
SOUTHCENTRAL IDAHO


CITY           SKY/WX    TMP DP  RH WIND       PRES   REMARKS
BURLEY         CLEAR     38  26  62 SW8       30.08R WCI  32
JEROME         CLEAR     39  26  59 SW7       30.07R WCI  34
TWIN FALLS     CLEAR     36  27  69 S13       30.08R WCI  27
$$

IDZ019>023-240600-
SOUTHEAST IDAHO


CITY           SKY/WX    TMP DP  RH WIND       PRES   REMARKS
IDAHO FALLS    CLEAR     41  29  62 SW18      30.04R
POCATELLO      CLOUDY    42  25  50 SW18      30.08R
REXBURG        CLEAR     40  31  70 S9        30.03R WCI  34
$$

IDZ006-010-011-018-031-032-240600-
CENTRAL IDAHO MOUNTAINS


CITY           SKY/WX    TMP DP  RH WIND       PRES   REMARKS
MCCALL         CLEAR     29  23  78 CALM      30.03R
HAILEY         CLEAR     36  28  75 CALM      30.06R
STANLEY          N/A     27  19  72 S6        30.07R WCI  20
SALMON         CLEAR     36  21  55 CALM      30.02R
CHALLIS        CLEAR     34  21  59 CALM      30.02R
$$

IDZ002-004-006-007-026-240600-
NORTHERN IDAHO


CITY           SKY/WX    TMP DP  RH WIND       PRES   REMARKS
LEWISTON       CLEAR     44  33  65 SE6       30.01S
LOWELL           N/A     38  34  85 NW5       30.09R WCI  34
COEUR D`ALENE  CLEAR     33  28  81 NE5       30.03F WCI  29
MULLAN PASS    CLEAR     24  22  91 SE7       29.99S WCI  16
$$




USA.gov is the U.S. government's official web portal to all federal, state and local government web resources and services.